Regional Weather Roundup
Issued by NWS Jackson, KY

Home | Current Version | Previous Version | Graphics & Text | Print | Product List | Glossary On
Versions: 1 2 3 4 5 6 7 8 9 10 11 12 13 14 15 16 17 18 19 20 21 22 23 24 25 26 27
000
ASUS43 KJKL 161010
RWRJKL

EAST KENTUCKY HOURLY WEATHER ROUNDUP
NATIONAL WEATHER SERVICE JACKSON KY
500 AM EST TUE JAN 16 2018

NOTE: "FAIR" INDICATES FEW OR NO CLOUDS BELOW 12,000 FEET WITH
NO SIGNIFICANT WEATHER AND/OR OBSTRUCTIONS TO VISIBILITY.

* THESE REPORTS ARE NOT UNDER NWS QUALITY CONTROL AND MAY NOT
  REPORT WEATHER SUCH AS PRECIPITATION AND FOG.

KYZ079-080-083-085-087-088-110-112-115-119-120-161100
...EASTERN KENTUCKY...

CITY           SKY/WX    TMP DP  RH WIND       PRES   REMARKS
JACKSON        MIX PCPN  28  23  81 NW5       30.36R WCI  23
LONDON         CLOUDY    26  22  84 N9        30.38R WCI  17
SOMERSET*      CLOUDY    23  19  86 NW9       30.45R WCI  13
MONTICELLO*    FLURRIES  21  17  84 NW12      30.46S WCI   9
WILLIAMSBURG*  CLOUDY    28  27  93 CALM      30.39S
MIDDLESBORO*   CLOUDY    32  28  83 CALM      30.37R
HARLAN APT*    CLOUDY    32  27  80 SW3       30.34R
PIKE CO APT*   CLOUDY    30  26  85 NW5       30.34R WCI  25
BIG SANDY APT* LGT RAIN  31  27  86 CALM      30.36R
MOREHEAD APT*  LGT SNOW  21  16  79 NW12      30.43R WCI   9
ASHLAND*       LGT SNOW  28  25  88 W8        30.41R FOG     WCI  20
$$

KYZ035-036-041-042-044-050-067-078-099-161100
...CENTRAL KENTUCKY...

CITY           SKY/WX    TMP DP  RH WIND       PRES   REMARKS
MT STERLING*   LGT SNOW  18  14  86 NW6       30.45R WCI   9
FLEMING/MASON* LGT SNOW  14  10  83 NW9       30.45R WCI   1
DANVILLE*      LGT SNOW  16  12  86 N8        30.46R WCI   5
LEXINGTON      LGT SNOW  14   9  80 NW8       30.45R WCI   3
FRANKFORT      LGT SNOW  14   8  77 NW6       30.46S WCI   5
LOUISVILLE     LGT SNOW  11   4  73 NW12      30.53R WCI  -3
LEBANON*       LGT SNOW  14  10  85 NW7       30.48R WCI   4
GLASGOW*       LGT SNOW  15  12  85 NW3       30.50R
BOWLING GREEN  LGT SNOW  15  11  83 N9G17     30.54R FOG     WCI   3
$$

KYZ091>093-OHZ055-061-077-WVZ005-015-034-035-042-161100
...SOUTHERN OHIO/WEST VIRGINIA...

CITY           SKY/WX    TMP DP  RH WIND       PRES   REMARKS
COVINGTON      FLURRIES  11   6  81 NW12      30.44R WCI  -3
COLUMBUS       CLOUDY    12   5  73 NW15      30.40R WCI  -4
DAYTON         CLOUDY     6   1  80 W13       30.42R WCI -10
WILMINGTON     CLOUDY     9   3  77 W13       30.41R WCI  -7
HUNTINGTON     LGT SNOW  28  25  88 CALM      30.38R FOG
CHARLESTON     LGT SNOW  31  26  82 CALM      30.36R
BECKLEY        CLOUDY    32  21  64 SW6       30.26F WCI  26
BLUEFIELD        N/A     30  19  63 SW6       30.27F WCI  24
LOGAN CO APT*  CLOUDY    30  25  80 CALM      30.31R
$$

VAZ002-007-008-TNZ017-027-036-066-071-161100
...SOUTHWEST VIRGINIA/EAST TENNESSEE...

CITY           SKY/WX    TMP DP  RH WIND       PRES   REMARKS
WISE*          CLOUDY    32  27  80 SW3       30.28R
JONESVILLE*    CLOUDY    27  25  93 CALM      30.35S
ABINGDON*        N/A     26  24  91 CALM      30.30F
BRISTOL          N/A     21  21 100 CALM      30.32F
MORRISTOWN*    MOSUNNY   27  25  93 CALM      30.34R
SEVIERVILLE*   SUNNY     23  23 100 CALM      30.36R
KNOXVILLE      MOCLDY    27  24  89 CALM      30.36R
LAFOLLETTE*    CLOUDY    34  27  75 VRB3      30.39R
OAK RIDGE      CLOUDY    30  25  81 CALM      30.37R
CROSSVILLE     CLOUDY    28  25  88 NW7       30.35R WCI  21
NASHVILLE      FLURRIES  20  13  74 N13       30.51R WCI   7
$$

...KEY TO REMARKS...
VSB - VISIBILITY IN MILES
WCI - WIND CHILL INDEX
HX  - HEAT INDEX

$$




USA.gov is the U.S. government's official web portal to all federal, state and local government web resources and services.